Location: ???????????
(44.4062°N, 135.3991°E)
Time: 00:57:06
(UTC+00:00)

Cosmos 614 Rocket - Pass Details

Date: 19 May 2025
Orbit: 729 x 758 km, 74.1° (Epoch: 16 June)

Event Time Altitude Azimuth Distance (km) Brightness Sun altitude
Exits shadow 16:55:39 39° 189° (S) 1,119 4.4 -20.0°
Maximum altitude 16:57:36 79° 109° (ESE) 777 4.0 -19.8°
Drops below altitude 10° 17:02:48 10° 23° (NNE) 2,294 7.7 -19.3°
Sets 17:05:11 0° 22° (NNE) 3,221 8.8 -19.1°
